Content
SEND FEEDBACK

Daily
Averages
Monthly
Summary
Thailand

NAM PHONG, THAILAND


Home > Asia > Thailand
Elevation: 750 feet     Latitude: 16 39N     Longitude: 102 58E

WEATHER
 
SELECT A DAY
Number of Records: 69,702;   Date Range: 12/16/03 - 11/27/14
 
SHARE

PRINT THIS DATA

[ ← Previous Day ]
WEATHER ALMANAC - FEBRUARY 18, 2013
[ Next Day → ]
[ °C ]   °F
Weather ElementAverageHighLow
Temperature87.4 °F98.6 °F (3:00 pm)73 °F (7:00 am)
Dewpoint66.8 °F69.8 °F (9:00 am)62 °F (1:00 pm)
Humidity51.8 %83 % (4:00 am)24 % (1:00 pm)
Barometer29.77 in29.86 in (9:00 am)29.68 in (4:00 pm)
Wind Speed3.3 mph6.9 mph (12:00 pm)
Weather ElementAverage
Visibility5.1 mi
Wind DirectionE (85.6 °)

Weather ElementTotal
Precipitation---
Cooling Degree Days20.8 (Base 65)
Growing Degree Days35.8 (Base 50)
Averaged from 19 records on February 18, 2013
WEATHER CONDITIONS BREAKOUT
WIND DIRECTION BREAKOUT
WEATHER BY HOUR - FEBRUARY 18, 2013
[ °C ]   °F
Local TimeTemperatureDewpointHumidityBarometerVisibilityWind DirectionWind SpeedGust SpeedPrecipitationEventsConditions
4:00 AM73.4 °F68.0 °F83 %29.77 inVariable2.3 mphClear
6:00 AM73.4 °F68.0 °F83 %29.80 in5.0 miNW (320°)2.3 mphPartly Cloudy
7:00 AM73.0 °F65.0 °F70 %29.81 in5.0 miCalmMist
7:00 AM73.4 °F68.0 °F83 %29.83 in4.3 miCalmPartly Cloudy
8:00 AM78.8 °F68.0 °F69 %29.83 in4.3 miNE (40°)3.5 mph
9:00 AM84.2 °F69.8 °F62 %29.86 in4.3 miVariable2.3 mph
10:00 AM87.8 °F69.8 °F55 %29.86 in4.3 miVariable4.6 mph
11:00 AM91.4 °F69.8 °F49 %29.83 in5.0 miSE (140°)5.8 mph
12:00 PM93.2 °F64.4 °F38 %29.80 in5.0 miSSE (150°)6.9 mphPartly Cloudy
1:00 PM96.8 °F66.2 °F37 %29.77 in5.6 miVariable5.8 mphPartly Cloudy
1:00 PM95.0 °F62.0 °F24 %29.74 in6.0 miESE (120°)3.5 mphHaze
2:00 PM96.8 °F66.2 °F37 %29.74 in5.6 miEast (100°)5.8 mphMostly Cloudy
3:00 PM98.6 °F66.2 °F35 %29.71 in5.6 miVariable2.3 mphMostly Cloudy
4:00 PM96.8 °F66.2 °F37 %29.68 in5.6 miSouth (180°)5.8 mphScattered Clouds
5:00 PM95.0 °F64.4 °F36 %29.68 in5.6 miSouth (180°)3.5 mphMostly Cloudy
6:00 PM91.4 °F66.2 °F43 %29.71 in5.0 miVariable1.2 mphMostly Cloudy
7:00 PM88.0 °F65.0 °F36 %29.71 in5.0 miSSE (160°)2.3 mphHaze
7:00 PM87.8 °F68.0 °F52 %29.74 in5.0 miVariable2.3 mph
8:00 PM86.0 °F68.0 °F55 %29.77 in5.0 miSSE (150°)2.3 mph
Hourly data recorded from VTUK, located miles away from Nam Phong, Thailand







STORIES FROM OUR PARTNERS